Погода в Кыбартаи

Поиск расширенной информации на нашем сайте:

Полезная информация:

Новости сайта



02.01.2020
Опубликован Долгосрочный прогноз погоды по городам России и ближнего зарубежья на январь 2020 года.
Карты: Прогноз на январь и февраль 2020 года, Сравнение прогнозируемой аномалии приземной температуры воздуха на январь 2020 года по разным моделям.




Погода в Кыбартаи - сегодня

Время (UTC), дата Ветер
(°,м/с) 
Видим.   Явления Облачность Т
(°С)
Тd
(°С)
f(%) Тe
(°С)
Pmin
(гПа)
dP
(гПа)
Po
(мм)
O2
(г/м3)
Тmin Tmax R s Состояние
почвы
03 05.03.21 230 (ЮЗ) 3-4{04}  20000 м    ясно 
-5.5 -6.4 93 -8  1016.1  0.6  756  312           
06 05.03.21 260 (З) 2-3{05}  19000 м  в посл. час снег  9/9 600 м 
-4.2 -5.4 91 -5  1017.4  1.3  757  311  -6    0.0     
09 05.03.21 310 (СЗ) 3-5{07}  20000 м    ясно 
-0.5 -6.8 62 -2  1018.8  1.6  758  307           
12 05.03.21 270 (З) 2-4{06}  17000 м    ясно 
+2.1 -13.6 30 +1  1019.3  0.5  759  305           
15 05.03.21 290 (З) 4-7{08}  20000 м    ясно 
+2 -12.3 34 1019.4  0.1  759  305           
18 05.03.21 270 (З) 3-5{07}  13000 м    8/0 2000 м 
-1.6 -4.2 82 -4  1021.6  2.1  761  309    +2.8       
21 05.03.21 260 (З) 2-3{06}  20000 м    9/9 600 м 
-2.9 -3.9 93 -4  1023  1.3  761  311           
00 06.03.21 300 (СЗ) 2-4{05}  20000 м    ясно 
-4.3 -5.5 91 -6  1024.6  1.6  763  313           
03 06.03.21 230 (ЮЗ) 3-3{04}  20000 м    ясно 
-6.3 -7.2 93 -9  1025.1  0.5  763  316           
06 06.03.21 250 (З) 3-4{04}  17000 м    ясно 
-5.8 -6.5 95 -8  1026  0.9  764  315  -6.6       
09 06.03.21 260 (З) 4-7{07}  20000 м    ясно 
+0.2 -4.6 70 -2  1025.8  0.1  764  308           
12 06.03.21 250 (З) 6-11{11}  20000 м    3/0 
+2.1 -6.1 55 -1  1023.9  -1.8  762  305           
15 06.03.21 240 (ЮЗ) 6-8{13}  20000 м    4/0 
+2.4 -5.6 55 -1  1021.3  -2.6  760  304           
18 06.03.21 230 (ЮЗ) 7-10{11}  20000 м    9/0 
+1.2 -5.3 62 -2  1018.4  -2.9  758  305    +3.4     
21 06.03.21 240 (ЮЗ) 9-11{13}  20000 м    9/9 1000 м 
+1.6 -4.6 63 -3  1014.4  -3.9  755  303           
00 07.03.21 250 (З) 8-13{15}  20000 м    10/10 600 м 
+2.1 -2.2 73 -2  1011.2  -3.2  753  301           
03 07.03.21 260 (З) 8-14{15}  14000 м  морось  10/10 300 м 
+2.2 +0.1 86 -2  1008.3  -2.9  751  300           
06 07.03.21 260 (З) 8-13{15}  4700 м  слаб. дождь  10/10 300 м 
+1.9 +0.8 92 -2  1006.9  -1.4  750  300  +1.3    0.4   
09 07.03.21 320 (СЗ) 4-6{13}  0700 м  снег  10/0 
-0.7 -1.3 96 -3  1008  750  303         
12 07.03.21 260 (З) 3-5{07}  5000 м  слаб. снег  10/10 1500 м 
-0.2 -1.4 92 -2  1008.1  0.2  751  303       
15 07.03.21 260 (З) 5-8{09}  20000 м    9/0 
-0.3 -1.5 92 -3  1007.8  -0.3  750  303         
18 07.03.21 280 (З) 6-9{09}  9000 м  слаб. ливневой снег  6/0 2000 м 
-0.8 -3 85 -4  1008.7  0.8  751  304    +2   
21 07.03.21 280 (З) 3-6{09}  20000 м    1/0 
-3.2 -5.8 82 -5  1009.9  1.2  752  307         
00 08.03.21 280 (З) 5-8{10}  20000 м  в посл. час снег  9/0 2000 м 
-2.6 -4.2 89 -6  1010.4  0.4  752  306      0.0   
03 08.03.21 290 (З) 4-6{09}  20000 м    1/0 
-3.3 -5.4 85 -6  1011.1  0.7  753  308         
Время (UTC), дата Ветер
(°,м/с) 
Видим.   Явления Облачность Т
(°С)
Тd
(°С)
f(%) Тe
(°С)
Pmin
(гПа)
dP
(гПа)
Po
(мм)
O2
(г/м3)
Тmin Tmax R s Состояние
почвы

Для получения пояснительной информации подведите курсор к названию столбца.

ПОГОДА в Кыбартаи - архив

Всё, что Вы хотите узнать о погоде в Кыбартаи - удобно и подробно!

Выберите нужную дату (начиная с 1 января 2019* года) и нажмите кнопку "Найти".
Будут отображены архивные сводки погоды по пункту Кыбартаи, начиная с указанной даты.


Отображать данные в формате CSV (для использования в таблицах Excel)


Внимание! Наш архив погоды предназначен исключительно для личного некоммерческого использования в познавательных целях. Если Вам необходимы официальные справки о состоянии погоды (для производственных, юридических, коммерческих и т.п. целей), обращайтесь в органы Росгидромета.

*Примечание: данная дата относится к архиву по метеостанциям СССР (Россия, СНГ, Балтия).
Архив по метеостанциям Зарубежной Европы и Азии (кроме Китая) хранится 10 дней, по другим регионам земного шара (Китай, Африка, Америка, Австралия, Океания) - 1 день.

Кыбартаи - район местоположения метеостанции


Название, широта, долгота, высота метеостанции:
Кыбартаи 54.6°ш. 22.8°д. 59 м над ур. моря [Литва]

Дополнительная информация

В oтличие oт бoльшинства пoгoдных сайтoв мы публикуем пoдрoбную метеoинфoрмацию в детальнoм прoфессиoнальнoм фoрмате.

Характеристики температуры и влажнoсти вoздуха измеряются на высoте 2 м в тени вдали oт зданий и деревьев.
Скoрoсть ветра измеряется на высoте 10 м (на урoвне рoста челoвека скoрoсть ветра ниже в 1.5-2 раза). Если метеoстанция нахoдится в гoрoде или в лесу, тo скoрoсть ветра занижена на 2-4 м/с пo сравнению с oткрытым местoм. Скoрoсть ветра над акватoриями крупных рек и oзёр, а также на вершинах хoлмoв на 2-5 м/с выше, чем в oбычных услoвиях.
Атмoсфернoе давление в разных тoчках местнoсти мoжет значительнo oтличаться oт давления на метеoстанции, в зависимoсти oт услoвий рельефа (при пoдъёме на 10 м давление пoнижается примернo на 1 мм рт.ст.).